CW8948 Weather Reports


Display with metric or nautical units.
time (UTC)temp
F
wind
direction
speed
MPH
gust
MPH
rain 1hr
in
rain 24hr
in
rain mn
in
humidity
%
barometer
mb
20260502151625 58 5 3.0 5.0 0.00 0.00 0.00 34 1020.7
20260502150627 58 360 3.0 5.0 0.00 0.00 0.00 37 1020.7
20260502130618 45 88 0.0 0.0 0.00 0.00 0.00 57 1020.5
20260502123645 45 88 0.0 0.0 0.00 0.00 0.00 59 1020.3
20260502122623 45 88 1.0 2.0 0.00 0.00 0.00 60 1020.3
20260502121628 45 88 0.0 2.0 0.00 0.00 0.00 60 1020.1
20260502120643 46 88 0.0 3.0 0.00 0.00 0.00 61 1020.2
20260502115624 45 88 0.0 2.0 0.00 0.00 0.00 61 1020.0
20260502114625 46 88 0.0 2.0 0.00 0.00 0.00 61 1020.2
20260502113626 46 83 0.0 0.0 0.00 0.00 0.00 60 1020.2
20260502112632 46 83 0.0 3.0 0.00 0.00 0.00 60 1020.2
20260502111633 46 83 4.0 7.0 0.00 0.00 0.00 59 1020.2
20260502110616 46 313 1.0 4.0 0.00 0.00 0.00 58 1020.3
20260502105618 46 274 0.0 3.0 0.00 0.00 0.00 58 1020.3
20260502104624 46 274 2.0 6.0 0.00 0.00 0.00 56 1020.3
20260502103625 47 134 0.0 0.0 0.00 0.00 0.00 57 1020.3
20260502102647 47 134 0.0 0.0 0.00 0.00 0.00 57 1020.3
20260502101627 48 134 0.0 2.0 0.00 0.00 0.00 56 1020.2
20260502100626 48 135 2.0 4.0 0.00 0.00 0.00 57 1019.9
20260502090626 48 274 3.0 4.0 0.00 0.00 0.00 59 1019.8
20260502070625 50 65 1.0 3.0 0.00 0.00 0.00 55 1019.9
20260502065626 50 65 3.0 5.0 0.00 0.00 0.00 55 1019.8
20260502064627 51 167 1.0 3.0 0.00 0.00 0.00 53 1019.8
20260502063631 51 166 3.0 3.0 0.00 0.00 0.00 51 1019.7
20260502062633 51 175 0.0 0.0 0.00 0.00 0.00 52 1019.7
20260502061635 51 175 0.0 0.0 0.00 0.00 0.00 52 1019.8
20260502060652 52 175 0.0 3.0 0.00 0.00 0.00 55 1019.8
20260502055633 53 175 3.0 3.0 0.00 0.00 0.00 51 1019.7
20260502054654 54 155 0.0 2.0 0.00 0.00 0.00 44 1019.6
20260502053619 54 156 1.0 3.0 0.00 0.00 0.00 45 1019.7
20260502052620 56 135 0.0 2.0 0.00 0.00 0.00 38 1019.6
20260502051621 56 134 0.0 2.0 0.00 0.00 0.00 38 1019.6
20260502050643 57 135 1.0 3.0 0.00 0.00 0.00 38 1019.5
20260502045625 57 134 1.0 4.0 0.00 0.00 0.00 38 1019.6
20260502044629 57 135 2.0 4.0 0.00 0.00 0.00 38 1019.6
20260502043632 57 135 2.0 4.0 0.00 0.00 0.00 37 1019.6
20260502042652 57 136 2.0 5.0 0.00 0.00 0.00 38 1019.5
20260502041632 57 135 3.0 5.0 0.00 0.00 0.00 42 1019.5
20260502040618 58 126 3.0 4.0 0.00 0.00 0.00 41 1019.5
20260502035622 58 91 3.0 3.0 0.00 0.00 0.00 40 1019.4
20260502034642 59 53 0.0 2.0 0.00 0.00 0.00 40 1019.3
20260502033623 59 53 1.0 2.0 0.00 0.00 0.00 40 1019.2
20260502032625 59 53 0.0 0.0 0.00 0.00 0.00 40 1019.1
20260502031630 60 53 0.0 3.0 0.00 0.00 0.00 40 1019.0
20260502030632 60 53 1.0 4.0 0.00 0.00 0.00 39 1018.8
20260502025635 60 42 2.0 3.0 0.00 0.00 0.00 38 1018.7
20260502024617 60 349 1.0 2.0 0.00 0.00 0.00 38 1018.5
20260502023621 61 348 0.0 4.0 0.00 0.00 0.00 40 1018.5
20260502022624 61 351 3.0 5.0 0.00 0.00 0.00 37 1018.5
20260502021627 62 360 4.0 4.0 0.00 0.00 0.00 37 1018.4
20260502020629 63 14 4.0 10.0 0.00 0.00 0.00 37 1018.4
20260502015649 64 24 4.0 7.0 0.00 0.00 0.00 35 1018.3
20260502014628 65 276 2.0 4.0 0.00 0.00 0.00 37 1018.2
20260502013631 65 261 5.0 8.0 0.00 0.00 0.00 34 1018.1
20260502012632 65 269 4.0 10.0 0.00 0.00 0.00 33 1018.0
20260502011652 65 279 7.0 10.0 0.00 0.00 0.00 32 1018.0
20260502010631 65 283 8.0 12.0 0.00 0.00 0.00 32 1017.9
20260502005630 66 282 9.0 12.0 0.00 0.00 0.00 33 1017.9
20260502004635 66 284 7.0 12.0 0.00 0.00 0.00 31 1017.9
20260502003655 66 280 9.0 13.0 0.00 0.00 0.00 31 1017.8
20260502002635 66 286 6.0 14.0 0.00 0.00 0.00 32 1017.9
20260502001655 66 300 8.0 13.0 0.00 0.00 0.00 31 1018.1
20260502000628 66 302 10.0 14.0 0.00 0.00 0.00 31 1018.0
20260501235631 66 277 9.0 13.0 0.00 0.00 0.00 30 1018.1
20260501234618 66 320 9.0 13.0 0.00 0.00 0.00 32 1018.1
20260501233619 66 303 8.0 14.0 0.00 0.00 0.00 32 1018.2
20260501232622 66 328 9.0 15.0 0.00 0.00 0.00 31 1018.2
20260501231623 66 285 8.0 14.0 0.00 0.00 0.00 31 1018.2
20260501230630 66 313 9.0 16.0 0.00 0.00 0.00 31 1018.3
20260501225630 66 284 10.0 15.0 0.00 0.00 0.00 31 1018.3
20260501224631 66 297 11.0 17.0 0.00 0.00 0.00 30 1018.4
20260501223630 66 275 9.0 14.0 0.00 0.00 0.00 32 1018.5
20260501222631 66 305 8.0 15.0 0.00 0.00 0.00 30 1018.6
20260501221616 66 279 9.0 14.0 0.00 0.00 0.00 30 1018.7
20260501220640 65 265 8.0 15.0 0.00 0.00 0.00 29 1018.8
20260501215622 65 303 10.0 16.0 0.00 0.00 0.00 28 1018.9
20260501214622 65 294 11.0 15.0 0.00 0.00 0.00 28 1019.0
20260501213628 65 256 9.0 16.0 0.00 0.00 0.00 28 1019.0
20260501212628 65 266 10.0 17.0 0.00 0.00 0.00 28 1019.1
20260501211648 65 309 11.0 16.0 0.00 0.00 0.00 28 1019.1
20260501210627 65 284 10.0 16.0 0.00 0.00 0.00 28 1019.2
20260501205630 65 286 12.0 17.0 0.00 0.00 0.00 29 1019.1
20260501204631 65 273 10.0 15.0 0.00 0.00 0.00 26 1019.1
20260501203656 65 260 8.0 14.0 0.00 0.00 0.00 28 1019.0
20260501202617 65 327 9.0 14.0 0.00 0.00 0.00 25 1019.0
20260501201619 65 338 8.0 12.0 0.00 0.00 0.00 24 1019.1
20260501200620 64 308 10.0 14.0 0.00 0.00 0.00 25 1019.1
20260501195624 64 258 7.0 12.0 0.00 0.00 0.00 23 1019.1
20260501194625 64 277 9.0 14.0 0.00 0.00 0.00 24 1019.2
20260501193627 64 275 7.0 13.0 0.00 0.00 0.00 25 1019.3
20260501192629 63 311 9.0 12.0 0.00 0.00 0.00 23 1019.4
20260501191630 63 309 5.0 13.0 0.00 0.00 0.00 24 1019.5
20260501190617 63 325 7.0 11.0 0.00 0.00 0.00 21 1019.6
20260501185618 63 232 7.0 10.0 0.00 0.00 0.00 21 1019.8
20260501184639 62 261 6.0 10.0 0.00 0.00 0.00 21 1019.8
20260501183641 62 263 6.0 11.0 0.00 0.00 0.00 21 1020.0
20260501182621 62 192 6.0 13.0 0.00 0.00 0.00 20 1020.0
20260501181643 62 232 5.0 11.0 0.00 0.00 0.00 21 1020.2
20260501180634 62 293 6.0 10.0 0.00 0.00 0.00 20 1020.2
20260501175641 61 122 3.0 9.0 0.00 0.00 0.00 19 1020.3
20260501174621 61 53 2.0 13.0 0.00 0.00 0.00 22 1020.5
20260501173642 61 15 7.0 13.0 0.00 0.00 0.00 24 1020.5
20260501172641 60 79 4.0 16.0 0.00 0.00 0.00 22 1020.5
20260501171621 61 355 5.0 10.0 0.00 0.00 0.00 22 1020.6
20260501170624 60 240 3.0 10.0 0.00 0.00 0.00 25 1020.7
20260501165628 60 273 4.0 12.0 0.00 0.00 0.00 27 1020.6
20260501164627 60 73 2.0 8.0 0.00 0.00 0.00 23 1020.6
20260501163629 59 286 2.0 8.0 0.00 0.00 0.00 26 1020.6
20260501162630 59 59 1.0 5.0 0.00 0.00 0.00 25 1020.5
20260501161636 58 275 2.0 8.0 0.00 0.00 0.00 27 1020.5
20260501160656 57 235 5.0 9.0 0.00 0.00 0.00 30 1020.5
20260501155617 57 242 7.0 11.0 0.00 0.00 0.00 32 1020.5
20260501154635 56 273 6.0 9.0 0.00 0.00 0.00 32 1020.5
20260501153656 56 307 6.0 10.0 0.00 0.00 0.00 37 1020.5
20260501152622 56 252 5.0 9.0 0.00 0.00 0.00 38 1020.4